Time,TemperatureF,DewpointF,PressureIn,WindDirection,WindDirectionDegrees,WindSpeedMPH,WindSpeedGustMPH,Humidity,HourlyPrecipIn,Conditions,Clouds,dailyrainin,SoftwareType,DateUTC
2013-10-15 00:01:00,63.7,60.1,30.07,North,0,0.0,0.0,88,0.00,,,0.00,WUHU216HW,2013-10-15 04:01:00,
2013-10-15 00:06:00,63.7,59.9,30.07,North,0,0.0,0.0,87,0.00,,,0.00,WUHU216HW,2013-10-15 04:06:00,
2013-10-15 00:11:00,63.7,59.9,30.07,North,0,0.0,0.0,87,0.00,,,0.00,WUHU216HW,2013-10-15 04:11:00,
2013-10-15 00:16:00,63.5,59.7,30.07,North,0,0.0,0.0,87,0.00,,,0.00,WUHU216HW,2013-10-15 04:16:00,
2013-10-15 00:21:00,63.5,59.7,30.07,North,0,0.0,0.0,87,0.00,,,0.00,WUHU216HW,2013-10-15 04:21:00,
2013-10-15 00:26:00,63.4,59.5,30.07,North,0,0.0,0.0,87,0.00,,,0.00,WUHU216HW,2013-10-15 04:26:00,
2013-10-15 00:31:00,63.4,59.5,30.07,North,0,0.0,0.0,87,0.00,,,0.00,WUHU216HW,2013-10-15 04:31:00,
2013-10-15 00:36:00,63.4,59.5,30.07,North,0,0.0,0.0,87,0.00,,,0.00,WUHU216HW,2013-10-15 04:36:00,
2013-10-15 00:41:00,63.4,59.5,30.07,North,0,0.0,0.0,87,0.00,,,0.00,WUHU216HW,2013-10-15 04:41:00,
2013-10-15 00:46:00,63.4,59.5,30.07,North,0,0.0,0.0,87,0.00,,,0.00,WUHU216HW,2013-10-15 04:46:00,
2013-10-15 00:51:00,63.4,59.5,30.07,North,0,0.0,0.0,87,0.00,,,0.00,WUHU216HW,2013-10-15 04:51:00,
2013-10-15 00:56:00,63.2,59.3,30.07,North,0,0.0,0.0,87,0.00,,,0.00,WUHU216HW,2013-10-15 04:56:00,
2013-10-15 01:01:00,63.0,59.1,30.07,North,0,0.0,0.0,87,0.00,,,0.00,WUHU216HW,2013-10-15 05:01:00,
2013-10-15 01:06:00,63.0,59.4,30.07,North,0,0.0,0.0,88,0.00,,,0.00,WUHU216HW,2013-10-15 05:06:00,
2013-10-15 01:11:00,63.0,59.4,30.07,North,0,0.0,0.0,88,0.00,,,0.00,WUHU216HW,2013-10-15 05:11:00,
2013-10-15 01:16:00,63.0,59.4,30.07,North,0,0.0,0.0,88,0.00,,,0.00,WUHU216HW,2013-10-15 05:16:00,
2013-10-15 01:37:00,63.2,59.3,30.07,North,0,0.0,0.0,87,0.00,,,0.00,WUHU216HW,2013-10-15 05:37:00,
2013-10-15 01:42:00,63.0,59.1,30.07,North,0,0.0,0.0,87,0.00,,,0.00,WUHU216HW,2013-10-15 05:42:00,
2013-10-15 01:47:00,63.0,59.1,30.07,North,0,0.0,0.0,87,0.00,,,0.00,WUHU216HW,2013-10-15 05:47:00,
2013-10-15 01:52:00,62.8,59.2,30.07,North,0,0.0,0.0,88,0.00,,,0.00,WUHU216HW,2013-10-15 05:52:00,
2013-10-15 01:57:00,62.8,59.2,30.07,North,0,0.0,0.0,88,0.00,,,0.00,WUHU216HW,2013-10-15 05:57:00,
2013-10-15 02:02:00,62.6,59.0,30.07,North,0,0.0,0.0,88,0.00,,,0.00,WUHU216HW,2013-10-15 06:02:00,
2013-10-15 02:07:00,62.6,59.0,30.07,North,0,0.0,0.0,88,0.00,,,0.00,WUHU216HW,2013-10-15 06:07:00,
2013-10-15 02:12:00,62.6,59.0,30.07,North,0,0.0,0.0,88,0.00,,,0.00,WUHU216HW,2013-10-15 06:12:00,
2013-10-15 02:17:00,62.6,59.0,30.06,North,0,0.0,0.0,88,0.00,,,0.00,WUHU216HW,2013-10-15 06:17:00,
2013-10-15 02:22:00,62.6,59.0,30.06,North,0,0.0,0.0,88,0.00,,,0.00,WUHU216HW,2013-10-15 06:22:00,
2013-10-15 02:27:00,62.6,59.0,30.06,North,0,0.0,0.0,88,0.00,,,0.00,WUHU216HW,2013-10-15 06:27:00,
2013-10-15 02:32:00,62.6,59.0,30.06,North,0,0.0,0.0,88,0.00,,,0.00,WUHU216HW,2013-10-15 06:32:00,
2013-10-15 02:52:00,62.8,59.2,30.05,North,0,0.0,0.0,88,0.00,,,0.00,WUHU216HW,2013-10-15 06:52:00,
2013-10-15 02:57:00,62.8,59.2,30.05,North,0,0.0,0.0,88,0.00,,,0.00,WUHU216HW,2013-10-15 06:57:00,
2013-10-15 03:02:00,62.6,59.0,30.05,North,0,0.0,0.0,88,0.00,,,0.00,WUHU216HW,2013-10-15 07:02:00,
2013-10-15 03:07:00,62.6,59.0,30.05,North,0,0.0,0.0,88,0.00,,,0.00,WUHU216HW,2013-10-15 07:07:00,
2013-10-15 03:12:00,62.6,59.0,30.05,North,0,0.0,0.0,88,0.00,,,0.00,WUHU216HW,2013-10-15 07:12:00,
2013-10-15 03:17:00,62.6,59.0,30.05,North,0,0.0,0.0,88,0.00,,,0.00,WUHU216HW,2013-10-15 07:17:00,
2013-10-15 03:22:00,62.6,59.0,30.04,North,0,0.0,0.0,88,0.00,,,0.00,WUHU216HW,2013-10-15 07:22:00,
2013-10-15 03:27:00,62.6,59.0,30.04,North,0,0.0,0.0,88,0.00,,,0.00,WUHU216HW,2013-10-15 07:27:00,
2013-10-15 03:32:00,62.6,59.0,30.04,North,0,0.0,0.0,88,0.00,,,0.00,WUHU216HW,2013-10-15 07:32:00,
2013-10-15 03:37:00,62.6,59.0,30.05,North,0,0.0,0.0,88,0.00,,,0.00,WUHU216HW,2013-10-15 07:37:00,
2013-10-15 03:42:00,62.6,59.0,30.04,North,0,0.0,0.0,88,0.00,,,0.00,WUHU216HW,2013-10-15 07:42:00,
2013-10-15 03:47:00,62.8,59.2,30.04,North,0,0.0,0.0,88,0.00,,,0.00,WUHU216HW,2013-10-15 07:47:00,
2013-10-15 03:52:00,62.8,59.0,30.04,North,0,0.0,0.0,87,0.00,,,0.00,WUHU216HW,2013-10-15 07:52:00,
2013-10-15 03:57:00,62.6,58.8,30.04,North,0,0.0,0.0,87,0.00,,,0.00,WUHU216HW,2013-10-15 07:57:00,
2013-10-15 04:02:00,62.6,58.8,30.04,North,0,0.0,0.0,87,0.00,,,0.00,WUHU216HW,2013-10-15 08:02:00,
2013-10-15 04:07:00,62.3,58.4,30.04,North,0,0.0,0.0,87,0.00,,,0.00,WUHU216HW,2013-10-15 08:07:00,
2013-10-15 04:12:00,62.3,58.4,30.05,North,0,0.0,0.0,87,0.00,,,0.00,WUHU216HW,2013-10-15 08:12:00,
2013-10-15 04:17:00,62.1,58.2,30.05,North,0,0.0,0.0,87,0.00,,,0.00,WUHU216HW,2013-10-15 08:17:00,
2013-10-15 04:22:00,61.9,58.4,30.05,North,0,0.0,0.0,88,0.00,,,0.00,WUHU216HW,2013-10-15 08:22:00,
2013-10-15 04:27:00,61.9,58.4,30.04,North,0,0.0,0.0,88,0.00,,,0.00,WUHU216HW,2013-10-15 08:27:00,
2013-10-15 04:32:00,62.1,58.6,30.05,North,0,0.0,0.0,88,0.00,,,0.00,WUHU216HW,2013-10-15 08:32:00,
2013-10-15 04:37:00,62.1,58.6,30.05,North,0,0.0,0.0,88,0.00,,,0.00,WUHU216HW,2013-10-15 08:37:00,
2013-10-15 04:42:00,62.1,58.6,30.05,North,0,0.0,0.0,88,0.00,,,0.00,WUHU216HW,2013-10-15 08:42:00,
2013-10-15 04:47:00,62.1,58.6,30.05,North,0,0.0,0.0,88,0.00,,,0.00,WUHU216HW,2013-10-15 08:47:00,
2013-10-15 04:50:00,61.9,58.4,30.05,North,0,0.0,0.0,88,0.00,,,0.00,WUHU216HW,2013-10-15 08:50:00,
2013-10-15 04:55:00,61.9,58.4,30.05,North,0,0.0,0.0,88,0.00,,,0.00,WUHU216HW,2013-10-15 08:55:00,
2013-10-15 05:00:00,62.1,58.6,30.05,North,0,0.0,0.0,88,0.00,,,0.00,WUHU216HW,2013-10-15 09:00:00,
2013-10-15 05:05:00,62.1,58.6,30.05,North,0,0.0,0.0,88,0.00,,,0.00,WUHU216HW,2013-10-15 09:05:00,
2013-10-15 05:10:00,62.3,58.7,30.04,North,0,0.0,0.0,88,0.00,,,0.00,WUHU216HW,2013-10-15 09:10:00,
2013-10-15 05:15:00,62.1,58.2,30.04,North,0,0.0,0.0,87,0.00,,,0.00,WUHU216HW,2013-10-15 09:15:00,
2013-10-15 05:20:00,62.1,58.2,30.04,North,0,0.0,0.0,87,0.00,,,0.00,WUHU216HW,2013-10-15 09:20:00,
2013-10-15 05:25:00,61.9,58.1,30.04,North,0,0.0,0.0,87,0.00,,,0.00,WUHU216HW,2013-10-15 09:25:00,
2013-10-15 05:30:00,61.9,58.4,30.04,North,0,0.0,0.0,88,0.00,,,0.00,WUHU216HW,2013-10-15 09:30:00,
2013-10-15 05:35:00,61.7,58.2,30.04,North,0,0.0,0.0,88,0.00,,,0.00,WUHU216HW,2013-10-15 09:35:00,
2013-10-15 05:40:00,61.7,58.2,30.04,North,0,0.0,0.0,88,0.00,,,0.00,WUHU216HW,2013-10-15 09:40:00,
2013-10-15 05:45:00,61.7,58.2,30.04,North,0,0.0,0.0,88,0.00,,,0.00,WUHU216HW,2013-10-15 09:45:00,
2013-10-15 05:50:00,61.7,58.2,30.04,North,0,0.0,0.0,88,0.00,,,0.00,WUHU216HW,2013-10-15 09:50:00,
2013-10-15 05:55:00,61.6,58.1,30.04,North,0,0.0,0.0,88,0.00,,,0.00,WUHU216HW,2013-10-15 09:55:00,
2013-10-15 06:00:00,61.6,58.1,30.04,North,0,0.0,0.0,88,0.00,,,0.00,WUHU216HW,2013-10-15 10:00:00,
2013-10-15 06:05:00,61.4,57.9,30.04,North,0,0.0,0.0,88,0.00,,,0.00,WUHU216HW,2013-10-15 10:05:00,
2013-10-15 06:10:00,61.2,57.7,30.04,North,0,0.0,0.0,88,0.00,,,0.00,WUHU216HW,2013-10-15 10:10:00,
2013-10-15 06:15:00,61.4,58.1,30.04,North,0,0.0,0.0,89,0.00,,,0.00,WUHU216HW,2013-10-15 10:15:00,
2013-10-15 06:20:00,61.4,58.1,30.04,North,0,0.0,0.0,89,0.00,,,0.00,WUHU216HW,2013-10-15 10:20:00,
2013-10-15 06:25:00,61.4,58.1,30.04,North,0,0.0,0.0,89,0.00,,,0.00,WUHU216HW,2013-10-15 10:25:00,
2013-10-15 06:30:00,61.2,57.7,30.04,North,0,0.0,0.0,88,0.00,,,0.00,WUHU216HW,2013-10-15 10:30:00,
2013-10-15 06:35:00,61.2,57.7,30.04,North,0,0.0,0.0,88,0.00,,,0.00,WUHU216HW,2013-10-15 10:35:00,
2013-10-15 06:40:00,61.2,57.7,30.04,North,0,0.0,0.0,88,0.00,,,0.00,WUHU216HW,2013-10-15 10:40:00,
2013-10-15 06:45:00,61.0,57.5,30.05,North,0,0.0,0.0,88,0.00,,,0.00,WUHU216HW,2013-10-15 10:45:00,
2013-10-15 06:50:00,60.8,57.3,30.05,North,0,0.0,0.0,88,0.00,,,0.00,WUHU216HW,2013-10-15 10:50:00,
2013-10-15 06:55:00,60.8,57.3,30.04,North,0,0.0,0.0,88,0.00,,,0.00,WUHU216HW,2013-10-15 10:55:00,
2013-10-15 07:00:00,60.8,57.3,30.04,North,0,0.0,0.0,88,0.00,,,0.00,WUHU216HW,2013-10-15 11:00:00,
2013-10-15 07:05:00,60.8,57.3,30.04,North,0,0.0,0.0,88,0.00,,,0.00,WUHU216HW,2013-10-15 11:05:00,
2013-10-15 07:10:00,60.7,57.2,30.04,North,0,0.0,0.0,88,0.00,,,0.00,WUHU216HW,2013-10-15 11:10:00,
2013-10-15 07:15:00,60.7,57.2,30.04,North,0,0.0,0.0,88,0.00,,,0.00,WUHU216HW,2013-10-15 11:15:00,
2013-10-15 07:20:00,60.5,57.0,30.04,North,0,0.0,0.0,88,0.00,,,0.00,WUHU216HW,2013-10-15 11:20:00,
2013-10-15 07:25:00,60.5,57.2,30.04,North,0,0.0,0.0,89,0.00,,,0.00,WUHU216HW,2013-10-15 11:25:00,
2013-10-15 07:29:00,60.5,57.2,30.04,North,0,0.0,0.0,89,0.00,,,0.00,WUHU216HW,2013-10-15 11:29:00,
2013-10-15 07:35:00,60.3,57.1,30.04,North,0,0.0,0.0,89,0.00,,,0.00,WUHU216HW,2013-10-15 11:35:00,
2013-10-15 07:40:00,60.3,57.1,30.04,North,0,0.0,0.0,89,0.00,,,0.00,WUHU216HW,2013-10-15 11:40:00,
2013-10-15 07:45:00,60.1,56.9,30.04,North,0,0.0,0.0,89,0.00,,,0.00,WUHU216HW,2013-10-15 11:45:00,
2013-10-15 07:50:00,60.1,56.9,30.05,North,0,0.0,0.0,89,0.00,,,0.00,WUHU216HW,2013-10-15 11:50:00,
2013-10-15 07:54:00,60.1,56.9,30.04,North,0,0.0,0.0,89,0.00,,,0.00,WUHU216HW,2013-10-15 11:54:00,
2013-10-15 07:59:00,60.1,56.9,30.04,North,0,0.0,0.0,89,0.00,,,0.00,WUHU216HW,2013-10-15 11:59:00,
2013-10-15 08:04:00,60.1,56.9,30.05,North,0,0.0,0.0,89,0.00,,,0.00,WUHU216HW,2013-10-15 12:04:00,
2013-10-15 08:09:00,60.1,56.9,30.04,North,0,0.0,0.0,89,0.00,,,0.00,WUHU216HW,2013-10-15 12:09:00,
2013-10-15 08:14:00,60.3,57.1,30.04,North,0,0.0,0.0,89,0.00,,,0.00,WUHU216HW,2013-10-15 12:14:00,
2013-10-15 08:19:00,60.3,57.1,30.05,North,0,0.0,0.0,89,0.00,,,0.00,WUHU216HW,2013-10-15 12:19:00,
2013-10-15 08:24:00,60.3,57.1,30.05,North,0,0.0,0.0,89,0.00,,,0.00,WUHU216HW,2013-10-15 12:24:00,
2013-10-15 08:29:00,60.5,57.6,30.05,North,0,0.0,0.0,90,0.00,,,0.00,WUHU216HW,2013-10-15 12:29:00,
2013-10-15 08:34:00,60.5,57.6,30.05,North,0,0.0,0.0,90,0.00,,,0.00,WUHU216HW,2013-10-15 12:34:00,
2013-10-15 08:39:00,60.7,57.8,30.05,North,0,0.0,0.0,90,0.00,,,0.00,WUHU216HW,2013-10-15 12:39:00,
2013-10-15 08:44:00,60.8,58.0,30.05,North,0,0.0,0.0,90,0.00,,,0.00,WUHU216HW,2013-10-15 12:44:00,
2013-10-15 08:49:00,61.0,58.1,30.06,North,0,0.0,0.0,90,0.00,,,0.00,WUHU216HW,2013-10-15 12:49:00,
2013-10-15 08:54:00,61.2,58.3,30.06,North,0,0.0,0.0,90,0.00,,,0.00,WUHU216HW,2013-10-15 12:54:00,
2013-10-15 08:59:00,61.2,58.3,30.06,North,0,0.0,0.0,90,0.00,,,0.00,WUHU216HW,2013-10-15 12:59:00,
2013-10-15 09:04:00,61.2,58.3,30.07,North,0,0.0,0.0,90,0.00,,,0.00,WUHU216HW,2013-10-15 13:04:00,
2013-10-15 09:09:00,61.2,58.0,30.07,North,0,0.0,0.0,89,0.00,,,0.00,WUHU216HW,2013-10-15 13:09:00,
2013-10-15 09:14:00,61.2,58.3,30.06,North,0,0.0,0.0,90,0.00,,,0.00,WUHU216HW,2013-10-15 13:14:00,
2013-10-15 09:19:00,61.4,58.1,30.05,North,0,0.0,0.0,89,0.00,,,0.00,WUHU216HW,2013-10-15 13:19:00,
2013-10-15 09:24:00,61.6,58.3,30.06,North,0,0.0,0.0,89,0.00,,,0.00,WUHU216HW,2013-10-15 13:24:00,
2013-10-15 09:29:00,61.6,58.3,30.06,North,0,0.0,0.0,89,0.00,,,0.00,WUHU216HW,2013-10-15 13:29:00,
2013-10-15 09:34:00,61.9,58.7,30.06,North,0,0.0,0.0,89,0.00,,,0.00,WUHU216HW,2013-10-15 13:34:00,
2013-10-15 09:39:00,61.9,58.7,30.06,North,0,0.0,0.0,89,0.00,,,0.00,WUHU216HW,2013-10-15 13:39:00,
2013-10-15 09:44:00,61.9,58.7,30.06,North,0,0.0,0.0,89,0.00,,,0.00,WUHU216HW,2013-10-15 13:44:00,
2013-10-15 09:49:00,62.1,58.6,30.06,North,0,0.0,0.0,88,0.00,,,0.00,WUHU216HW,2013-10-15 13:49:00,
2013-10-15 09:54:00,62.3,58.7,30.06,North,0,0.0,0.0,88,0.00,,,0.00,WUHU216HW,2013-10-15 13:54:00,
2013-10-15 09:59:00,62.3,58.7,30.06,North,0,0.0,0.0,88,0.00,,,0.00,WUHU216HW,2013-10-15 13:59:00,
2013-10-15 10:04:00,62.6,59.0,30.06,North,0,0.0,0.0,88,0.00,,,0.00,WUHU216HW,2013-10-15 14:04:00,
2013-10-15 10:09:00,62.6,58.8,30.06,North,0,0.0,0.0,87,0.00,,,0.00,WUHU216HW,2013-10-15 14:09:00,
2013-10-15 10:14:00,62.6,58.8,30.06,North,0,0.0,0.0,87,0.00,,,0.00,WUHU216HW,2013-10-15 14:14:00,
2013-10-15 10:19:00,63.0,59.1,30.07,North,0,0.0,0.0,87,0.00,,,0.00,WUHU216HW,2013-10-15 14:19:00,
2013-10-15 10:24:00,63.0,58.8,30.07,North,0,0.0,0.0,86,0.00,,,0.00,WUHU216HW,2013-10-15 14:24:00,
2013-10-15 10:29:00,63.0,59.1,30.07,North,0,0.0,0.0,87,0.00,,,0.00,WUHU216HW,2013-10-15 14:29:00,
2013-10-15 10:34:00,63.2,59.0,30.07,North,0,0.0,0.0,86,0.00,,,0.00,WUHU216HW,2013-10-15 14:34:00,
2013-10-15 10:39:00,63.2,59.0,30.07,North,0,0.0,0.0,86,0.00,,,0.00,WUHU216HW,2013-10-15 14:39:00,
2013-10-15 11:00:00,63.7,59.1,30.06,North,0,0.0,0.0,85,0.00,,,0.00,WUHU216HW,2013-10-15 15:00:00,
2013-10-15 11:05:00,63.7,59.1,30.06,North,0,0.0,0.0,85,0.00,,,0.00,WUHU216HW,2013-10-15 15:05:00,
2013-10-15 11:10:00,63.7,58.8,30.06,North,0,0.0,0.0,84,0.00,,,0.00,WUHU216HW,2013-10-15 15:10:00,
2013-10-15 11:15:00,63.9,59.0,30.06,North,0,0.0,0.0,84,0.00,,,0.00,WUHU216HW,2013-10-15 15:15:00,
2013-10-15 11:20:00,64.3,59.3,30.05,North,0,0.0,0.0,84,0.00,,,0.00,WUHU216HW,2013-10-15 15:20:00,
2013-10-15 11:25:00,64.4,59.1,30.05,North,0,0.0,0.0,83,0.00,,,0.00,WUHU216HW,2013-10-15 15:25:00,
2013-10-15 11:30:00,64.4,59.1,30.05,North,0,0.0,0.0,83,0.00,,,0.00,WUHU216HW,2013-10-15 15:30:00,
2013-10-15 11:35:00,64.4,59.1,30.04,North,0,0.0,0.0,83,0.00,,,0.00,WUHU216HW,2013-10-15 15:35:00,
2013-10-15 11:40:00,64.3,59.0,30.04,North,0,0.0,0.0,83,0.00,,,0.00,WUHU216HW,2013-10-15 15:40:00,
2013-10-15 11:45:00,64.3,59.0,30.04,North,0,0.0,0.0,83,0.00,,,0.00,WUHU216HW,2013-10-15 15:45:00,
2013-10-15 11:50:00,64.3,58.7,30.04,North,0,0.0,0.0,82,0.00,,,0.00,WUHU216HW,2013-10-15 15:50:00,
2013-10-15 11:54:00,64.3,58.7,30.04,North,0,0.0,0.0,82,0.00,,,0.00,WUHU216HW,2013-10-15 15:54:00,
2013-10-15 11:59:00,64.4,58.9,30.05,North,0,0.0,0.0,82,0.00,,,0.00,WUHU216HW,2013-10-15 15:59:00,
2013-10-15 12:04:00,64.4,58.9,30.04,North,0,0.0,0.0,82,0.00,,,0.00,WUHU216HW,2013-10-15 16:04:00,
2013-10-15 12:09:00,64.4,58.9,30.05,North,0,0.0,0.0,82,0.00,,,0.00,WUHU216HW,2013-10-15 16:09:00,
2013-10-15 12:14:00,64.4,58.9,30.05,North,0,0.0,0.0,82,0.00,,,0.00,WUHU216HW,2013-10-15 16:14:00,
2013-10-15 12:19:00,64.4,58.9,30.05,North,0,0.0,0.0,82,0.00,,,0.00,WUHU216HW,2013-10-15 16:19:00,
2013-10-15 12:24:00,64.3,58.7,30.05,North,0,0.0,0.0,82,0.00,,,0.00,WUHU216HW,2013-10-15 16:24:00,
2013-10-15 12:29:00,64.3,59.0,30.05,North,0,0.0,0.0,83,0.00,,,0.00,WUHU216HW,2013-10-15 16:29:00,
2013-10-15 12:34:00,64.4,59.1,30.04,North,0,0.0,0.0,83,0.00,,,0.00,WUHU216HW,2013-10-15 16:34:00,
2013-10-15 12:39:00,64.6,59.1,30.04,North,0,0.0,0.0,82,0.00,,,0.00,WUHU216HW,2013-10-15 16:39:00,
2013-10-15 12:44:00,64.6,59.1,30.04,North,0,0.0,0.0,82,0.00,,,0.00,WUHU216HW,2013-10-15 16:44:00,
2013-10-15 12:49:00,64.6,58.7,30.04,North,0,0.0,0.0,81,0.00,,,0.00,WUHU216HW,2013-10-15 16:49:00,
2013-10-15 12:54:00,64.6,58.7,30.04,North,0,0.0,0.0,81,0.00,,,0.00,WUHU216HW,2013-10-15 16:54:00,
2013-10-15 12:59:00,64.6,58.7,30.03,North,0,0.0,0.0,81,0.00,,,0.00,WUHU216HW,2013-10-15 16:59:00,
2013-10-15 13:04:00,64.6,58.3,30.03,North,0,0.0,0.0,80,0.00,,,0.00,WUHU216HW,2013-10-15 17:04:00,
2013-10-15 13:09:00,65.0,59.1,30.03,North,0,0.0,0.0,81,0.00,,,0.00,WUHU216HW,2013-10-15 17:09:00,
2013-10-15 13:14:00,65.0,58.7,30.03,North,0,0.0,0.0,80,0.00,,,0.00,WUHU216HW,2013-10-15 17:14:00,
2013-10-15 13:19:00,65.0,58.7,30.03,North,0,0.0,0.0,80,0.00,,,0.00,WUHU216HW,2013-10-15 17:19:00,
2013-10-15 13:24:00,65.2,58.9,30.02,North,0,0.0,0.0,80,0.00,,,0.00,WUHU216HW,2013-10-15 17:24:00,
2013-10-15 13:29:00,65.2,58.2,30.02,North,0,0.0,0.0,78,0.00,,,0.00,WUHU216HW,2013-10-15 17:29:00,
2013-10-15 13:34:00,65.5,58.5,30.01,North,0,0.0,0.0,78,0.00,,,0.00,WUHU216HW,2013-10-15 17:34:00,
2013-10-15 13:39:00,65.7,59.1,30.01,North,0,0.0,0.0,79,0.00,,,0.00,WUHU216HW,2013-10-15 17:39:00,
2013-10-15 13:44:00,65.9,59.2,30.01,North,0,0.0,0.0,79,0.00,,,0.00,WUHU216HW,2013-10-15 17:44:00,
2013-10-15 13:49:00,66.2,59.2,30.00,North,0,0.0,0.0,78,0.00,,,0.00,WUHU216HW,2013-10-15 17:49:00,
2013-10-15 13:54:00,66.2,58.8,30.01,North,0,0.0,0.0,77,0.00,,,0.00,WUHU216HW,2013-10-15 17:54:00,
2013-10-15 13:59:00,66.4,59.0,30.00,North,0,0.0,0.0,77,0.00,,,0.00,WUHU216HW,2013-10-15 17:59:00,
2013-10-15 14:04:00,66.2,59.2,30.00,North,0,0.0,0.0,78,0.00,,,0.00,WUHU216HW,2013-10-15 18:04:00,
2013-10-15 14:09:00,66.2,58.8,30.00,North,0,0.0,0.0,77,0.00,,,0.00,WUHU216HW,2013-10-15 18:09:00,
2013-10-15 14:14:00,66.2,58.8,30.00,North,0,0.0,0.0,77,0.00,,,0.00,WUHU216HW,2013-10-15 18:14:00,
2013-10-15 14:19:00,66.1,58.6,30.00,North,0,0.0,0.0,77,0.00,,,0.00,WUHU216HW,2013-10-15 18:19:00,
2013-10-15 14:24:00,65.9,58.5,30.00,North,0,0.0,0.0,77,0.00,,,0.00,WUHU216HW,2013-10-15 18:24:00,
2013-10-15 14:29:00,65.7,58.7,30.00,North,0,0.0,0.0,78,0.00,,,0.00,WUHU216HW,2013-10-15 18:29:00,
2013-10-15 14:34:00,65.5,58.9,30.00,North,0,0.0,0.0,79,0.00,,,0.00,WUHU216HW,2013-10-15 18:34:00,
2013-10-15 14:39:00,65.5,58.5,30.00,North,0,0.0,0.0,78,0.00,,,0.00,WUHU216HW,2013-10-15 18:39:00,
2013-10-15 14:44:00,65.5,58.5,29.99,North,0,0.0,0.0,78,0.00,,,0.00,WUHU216HW,2013-10-15 18:44:00,
2013-10-15 14:49:00,65.5,58.5,29.99,North,0,0.0,0.0,78,0.00,,,0.00,WUHU216HW,2013-10-15 18:49:00,
2013-10-15 14:54:00,65.7,58.7,29.99,North,0,0.0,0.0,78,0.00,,,0.00,WUHU216HW,2013-10-15 18:54:00,
2013-10-15 14:59:00,65.7,59.1,29.99,North,0,0.0,0.0,79,0.00,,,0.00,WUHU216HW,2013-10-15 18:59:00,
2013-10-15 15:04:00,65.9,59.2,29.99,North,0,0.0,0.0,79,0.00,,,0.00,WUHU216HW,2013-10-15 19:04:00,
2013-10-15 15:09:00,65.9,59.2,29.99,North,0,0.0,0.0,79,0.00,,,0.00,WUHU216HW,2013-10-15 19:09:00,
2013-10-15 15:14:00,65.9,58.9,29.99,North,0,0.0,0.0,78,0.00,,,0.00,WUHU216HW,2013-10-15 19:14:00,
2013-10-15 15:19:00,65.9,58.9,29.99,North,0,0.0,0.0,78,0.00,,,0.00,WUHU216HW,2013-10-15 19:19:00,
2013-10-15 15:24:00,65.5,58.9,29.99,North,0,0.0,0.0,79,0.00,,,0.00,WUHU216HW,2013-10-15 19:24:00,
2013-10-15 15:29:00,65.2,58.5,29.99,North,0,0.0,0.0,79,0.00,,,0.00,WUHU216HW,2013-10-15 19:29:00,
2013-10-15 15:34:00,65.2,58.9,29.99,North,0,0.0,0.0,80,0.00,,,0.00,WUHU216HW,2013-10-15 19:34:00,
2013-10-15 15:39:00,65.0,58.7,29.99,North,0,0.0,0.0,80,0.00,,,0.00,WUHU216HW,2013-10-15 19:39:00,
2013-10-15 15:44:00,65.2,58.9,29.99,North,0,0.0,0.0,80,0.00,,,0.00,WUHU216HW,2013-10-15 19:44:00,
2013-10-15 15:49:00,65.2,58.9,29.99,North,0,0.0,0.0,80,0.00,,,0.00,WUHU216HW,2013-10-15 19:49:00,
2013-10-15 15:54:00,65.0,58.7,29.99,North,0,0.0,0.0,80,0.00,,,0.00,WUHU216HW,2013-10-15 19:54:00,
2013-10-15 15:59:00,65.0,58.7,29.99,North,0,0.0,0.0,80,0.00,,,0.00,WUHU216HW,2013-10-15 19:59:00,
2013-10-15 16:04:00,65.2,58.9,29.98,North,0,0.0,0.0,80,0.00,,,0.00,WUHU216HW,2013-10-15 20:04:00,
2013-10-15 16:09:00,65.2,59.2,29.98,North,0,0.0,0.0,81,0.00,,,0.00,WUHU216HW,2013-10-15 20:09:00,
2013-10-15 16:14:00,65.3,59.0,29.99,North,0,0.0,0.0,80,0.00,,,0.00,WUHU216HW,2013-10-15 20:14:00,
2013-10-15 16:19:00,65.5,59.2,29.98,North,0,0.0,0.0,80,0.00,,,0.00,WUHU216HW,2013-10-15 20:19:00,
2013-10-15 16:24:00,65.5,59.2,29.99,North,0,0.0,0.0,80,0.00,,,0.00,WUHU216HW,2013-10-15 20:24:00,
2013-10-15 16:29:00,65.5,59.2,29.99,North,0,0.0,0.0,80,0.00,,,0.00,WUHU216HW,2013-10-15 20:29:00,
2013-10-15 16:34:00,65.3,59.0,29.99,North,0,0.0,0.0,80,0.00,,,0.00,WUHU216HW,2013-10-15 20:34:00,
2013-10-15 16:39:00,65.2,58.9,29.99,North,0,0.0,0.0,80,0.00,,,0.00,WUHU216HW,2013-10-15 20:39:00,
2013-10-15 16:44:00,65.2,58.9,29.98,North,0,0.0,0.0,80,0.00,,,0.00,WUHU216HW,2013-10-15 20:44:00,
2013-10-15 16:49:00,65.2,58.9,29.98,North,0,0.0,0.0,80,0.00,,,0.00,WUHU216HW,2013-10-15 20:49:00,
2013-10-15 16:54:00,64.8,58.5,29.99,North,0,0.0,0.0,80,0.00,,,0.00,WUHU216HW,2013-10-15 20:54:00,
2013-10-15 16:59:00,64.8,58.9,29.99,North,0,0.0,0.0,81,0.00,,,0.00,WUHU216HW,2013-10-15 20:59:00,
2013-10-15 17:04:00,64.8,58.9,29.99,North,0,0.0,0.0,81,0.00,,,0.00,WUHU216HW,2013-10-15 21:04:00,
2013-10-15 17:09:00,64.6,58.7,29.99,North,0,0.0,0.0,81,0.00,,,0.00,WUHU216HW,2013-10-15 21:09:00,
2013-10-15 17:14:00,64.6,59.1,29.98,North,0,0.0,0.0,82,0.00,,,0.00,WUHU216HW,2013-10-15 21:14:00,
2013-10-15 17:19:00,64.6,59.1,29.98,North,0,0.0,0.0,82,0.00,,,0.00,WUHU216HW,2013-10-15 21:19:00,
2013-10-15 17:24:00,64.4,58.9,29.98,North,0,0.0,0.0,82,0.00,,,0.00,WUHU216HW,2013-10-15 21:24:00,
2013-10-15 17:29:00,64.4,58.9,29.98,North,0,0.0,0.0,82,0.00,,,0.00,WUHU216HW,2013-10-15 21:29:00,
2013-10-15 17:34:00,64.4,58.9,29.98,North,0,0.0,0.0,82,0.00,,,0.00,WUHU216HW,2013-10-15 21:34:00,
2013-10-15 17:39:00,64.4,58.9,29.98,North,0,0.0,0.0,82,0.00,,,0.00,WUHU216HW,2013-10-15 21:39:00,
2013-10-15 17:44:00,64.4,58.9,29.98,North,0,0.0,0.0,82,0.00,,,0.00,WUHU216HW,2013-10-15 21:44:00,
2013-10-15 17:49:00,64.3,58.7,29.98,North,0,0.0,0.0,82,0.00,,,0.00,WUHU216HW,2013-10-15 21:49:00,
2013-10-15 17:54:00,64.1,58.2,29.98,North,0,0.0,0.0,81,0.00,,,0.00,WUHU216HW,2013-10-15 21:54:00,
2013-10-15 17:59:00,63.9,58.0,29.97,North,0,0.0,0.0,81,0.00,,,0.00,WUHU216HW,2013-10-15 21:59:00,
2013-10-15 18:04:00,63.7,57.8,29.97,North,0,0.0,0.0,81,0.00,,,0.00,WUHU216HW,2013-10-15 22:04:00,
2013-10-15 18:09:00,63.5,57.6,29.97,North,0,0.0,0.0,81,0.00,,,0.00,WUHU216HW,2013-10-15 22:09:00,
2013-10-15 18:14:00,63.5,58.0,29.97,North,0,0.0,0.0,82,0.00,,,0.00,WUHU216HW,2013-10-15 22:14:00,
2013-10-15 18:19:00,63.5,58.0,29.97,North,0,0.0,0.0,82,0.00,,,0.00,WUHU216HW,2013-10-15 22:19:00,
2013-10-15 18:24:00,63.4,57.8,29.97,North,0,0.0,0.0,82,0.00,,,0.00,WUHU216HW,2013-10-15 22:24:00,
2013-10-15 18:29:00,63.4,57.8,29.97,North,0,0.0,0.0,82,0.00,,,0.00,WUHU216HW,2013-10-15 22:29:00,
2013-10-15 18:34:00,63.4,58.1,29.97,North,0,0.0,0.0,83,0.00,,,0.00,WUHU216HW,2013-10-15 22:34:00,
2013-10-15 18:39:00,63.4,58.1,29.97,North,0,0.0,0.0,83,0.00,,,0.00,WUHU216HW,2013-10-15 22:39:00,
2013-10-15 18:44:00,63.4,58.1,29.97,North,0,0.0,0.0,83,0.00,,,0.00,WUHU216HW,2013-10-15 22:44:00,
2013-10-15 18:49:00,63.5,58.2,29.97,North,0,0.0,0.0,83,0.00,,,0.00,WUHU216HW,2013-10-15 22:49:00,
2013-10-15 18:54:00,63.4,58.1,29.97,North,0,0.0,0.0,83,0.00,,,0.00,WUHU216HW,2013-10-15 22:54:00,
2013-10-15 18:59:00,63.2,57.9,29.97,North,0,0.0,0.0,83,0.00,,,0.00,WUHU216HW,2013-10-15 22:59:00,
2013-10-15 19:04:00,63.0,57.7,29.97,North,0,0.0,0.0,83,0.00,,,0.00,WUHU216HW,2013-10-15 23:04:00,
2013-10-15 19:09:00,62.8,57.5,29.98,North,0,0.0,0.0,83,0.00,,,0.00,WUHU216HW,2013-10-15 23:09:00,
2013-10-15 19:14:00,62.6,57.7,29.98,North,0,0.0,0.0,84,0.00,,,0.00,WUHU216HW,2013-10-15 23:14:00,
2013-10-15 19:19:00,62.6,57.7,29.98,North,0,0.0,0.0,84,0.00,,,0.00,WUHU216HW,2013-10-15 23:19:00,
2013-10-15 19:24:00,62.8,57.9,29.98,North,0,0.0,0.0,84,0.00,,,0.00,WUHU216HW,2013-10-15 23:24:00,
2013-10-15 19:29:00,62.6,57.7,29.98,North,0,0.0,0.0,84,0.00,,,0.00,WUHU216HW,2013-10-15 23:29:00,
2013-10-15 19:34:00,62.6,57.7,29.98,North,0,0.0,0.0,84,0.00,,,0.00,WUHU216HW,2013-10-15 23:34:00,
2013-10-15 19:39:00,62.5,57.5,29.98,North,0,0.0,0.0,84,0.00,,,0.00,WUHU216HW,2013-10-15 23:39:00,
2013-10-15 19:44:00,62.5,57.5,29.98,North,0,0.0,0.0,84,0.00,,,0.00,WUHU216HW,2013-10-15 23:44:00,
2013-10-15 19:49:00,62.5,57.9,29.98,North,0,0.0,0.0,85,0.00,,,0.00,WUHU216HW,2013-10-15 23:49:00,
2013-10-15 19:54:00,62.6,58.1,29.98,North,0,0.0,0.0,85,0.00,,,0.00,WUHU216HW,2013-10-15 23:54:00,
2013-10-15 19:59:00,62.6,58.1,29.98,North,0,0.0,0.0,85,0.00,,,0.00,WUHU216HW,2013-10-15 23:59:00,
2013-10-15 20:04:00,62.6,58.1,29.98,North,0,0.0,0.0,85,0.00,,,0.00,WUHU216HW,2013-10-16 00:04:00,
2013-10-15 20:09:00,62.6,58.1,29.98,North,0,0.0,0.0,85,0.00,,,0.00,WUHU216HW,2013-10-16 00:09:00,
2013-10-15 20:14:00,62.8,58.2,29.98,North,0,0.0,0.0,85,0.00,,,0.00,WUHU216HW,2013-10-16 00:14:00,
2013-10-15 20:19:00,62.5,57.5,29.98,North,0,0.0,0.0,84,0.00,,,0.00,WUHU216HW,2013-10-16 00:19:00,
2013-10-15 20:24:00,62.3,57.7,29.99,North,0,0.0,0.0,85,0.00,,,0.00,WUHU216HW,2013-10-16 00:24:00,
2013-10-15 20:29:00,62.1,57.5,29.99,North,0,0.0,0.0,85,0.00,,,0.00,WUHU216HW,2013-10-16 00:29:00,
2013-10-15 20:34:00,61.9,57.3,29.99,North,0,0.0,0.0,85,0.00,,,0.00,WUHU216HW,2013-10-16 00:34:00,
2013-10-15 20:39:00,61.9,57.3,29.99,North,0,0.0,0.0,85,0.00,,,0.00,WUHU216HW,2013-10-16 00:39:00,
2013-10-15 20:44:00,61.9,57.7,29.99,North,0,0.0,0.0,86,0.00,,,0.00,WUHU216HW,2013-10-16 00:44:00,
2013-10-15 20:49:00,61.7,57.5,29.99,North,0,0.0,0.0,86,0.00,,,0.00,WUHU216HW,2013-10-16 00:49:00,
2013-10-15 20:54:00,61.6,57.3,29.99,North,0,0.0,0.0,86,0.00,,,0.00,WUHU216HW,2013-10-16 00:54:00,
2013-10-15 20:59:00,61.6,57.3,30.00,North,0,0.0,0.0,86,0.00,,,0.00,WUHU216HW,2013-10-16 00:59:00,
2013-10-15 21:04:00,61.4,57.2,29.99,North,0,0.0,0.0,86,0.00,,,0.00,WUHU216HW,2013-10-16 01:04:00,
2013-10-15 21:09:00,61.6,57.7,29.99,North,0,0.0,0.0,87,0.00,,,0.00,WUHU216HW,2013-10-16 01:09:00,
2013-10-15 21:14:00,61.6,57.7,30.00,North,0,0.0,0.0,87,0.00,,,0.00,WUHU216HW,2013-10-16 01:14:00,
2013-10-15 21:19:00,61.7,57.9,30.00,North,0,0.0,0.0,87,0.00,,,0.00,WUHU216HW,2013-10-16 01:19:00,
2013-10-15 21:24:00,61.9,58.1,30.00,North,0,0.0,0.0,87,0.00,,,0.00,WUHU216HW,2013-10-16 01:24:00,
2013-10-15 21:29:00,62.1,58.2,30.00,North,0,0.0,0.0,87,0.00,,,0.00,WUHU216HW,2013-10-16 01:29:00,
2013-10-15 21:34:00,61.9,57.7,29.99,North,0,0.0,0.0,86,0.00,,,0.00,WUHU216HW,2013-10-16 01:34:00,
2013-10-15 21:39:00,61.7,57.5,29.99,North,0,0.0,0.0,86,0.00,,,0.00,WUHU216HW,2013-10-16 01:39:00,
2013-10-15 21:44:00,61.7,57.9,30.00,North,0,0.0,0.0,87,0.00,,,0.00,WUHU216HW,2013-10-16 01:44:00,
2013-10-15 21:49:00,61.9,58.1,30.00,North,0,0.0,0.0,87,0.00,,,0.00,WUHU216HW,2013-10-16 01:49:00,
2013-10-15 21:54:00,61.9,58.1,30.00,North,0,0.0,0.0,87,0.00,,,0.00,WUHU216HW,2013-10-16 01:54:00,
2013-10-15 21:59:00,61.9,58.1,30.00,North,0,0.0,0.0,87,0.00,,,0.00,WUHU216HW,2013-10-16 01:59:00,
2013-10-15 22:04:00,62.1,57.9,30.00,North,0,0.0,0.0,86,0.00,,,0.00,WUHU216HW,2013-10-16 02:04:00,
2013-10-15 22:09:00,62.1,57.9,30.00,North,0,0.0,0.0,86,0.00,,,0.00,WUHU216HW,2013-10-16 02:09:00,
2013-10-15 22:14:00,62.3,58.4,30.00,North,0,0.0,0.0,87,0.00,,,0.00,WUHU216HW,2013-10-16 02:14:00,
2013-10-15 22:19:00,62.3,58.1,29.99,North,0,0.0,0.0,86,0.00,,,0.00,WUHU216HW,2013-10-16 02:19:00,
2013-10-15 22:24:00,62.3,58.1,30.00,North,0,0.0,0.0,86,0.00,,,0.00,WUHU216HW,2013-10-16 02:24:00,
2013-10-15 22:29:00,62.1,57.9,30.00,North,0,0.0,0.0,86,0.00,,,0.00,WUHU216HW,2013-10-16 02:29:00,
2013-10-15 22:34:00,62.3,58.1,30.00,North,0,0.0,0.0,86,0.00,,,0.00,WUHU216HW,2013-10-16 02:34:00,
2013-10-15 22:39:00,62.1,57.9,30.00,North,0,0.0,0.0,86,0.00,,,0.00,WUHU216HW,2013-10-16 02:39:00,
2013-10-15 22:44:00,61.9,57.7,30.00,North,0,0.0,0.0,86,0.00,,,0.00,WUHU216HW,2013-10-16 02:44:00,
2013-10-15 22:49:00,61.9,57.7,30.00,North,0,0.0,0.0,86,0.00,,,0.00,WUHU216HW,2013-10-16 02:49:00,
2013-10-15 22:54:00,61.9,57.7,30.00,North,0,0.0,0.0,86,0.00,,,0.00,WUHU216HW,2013-10-16 02:54:00,
2013-10-15 22:59:00,61.9,57.7,30.00,North,0,0.0,0.0,86,0.00,,,0.00,WUHU216HW,2013-10-16 02:59:00,
2013-10-15 23:04:00,61.7,57.5,30.00,North,0,0.0,0.0,86,0.00,,,0.00,WUHU216HW,2013-10-16 03:04:00,
2013-10-15 23:09:00,61.6,57.7,29.99,North,0,0.0,0.0,87,0.00,,,0.00,WUHU216HW,2013-10-16 03:09:00,
2013-10-15 23:14:00,61.6,57.7,29.99,North,0,0.0,0.0,87,0.00,,,0.00,WUHU216HW,2013-10-16 03:14:00,
2013-10-15 23:19:00,61.6,57.7,29.99,North,0,0.0,0.0,87,0.00,,,0.00,WUHU216HW,2013-10-16 03:19:00,
2013-10-15 23:24:00,61.6,57.7,30.00,North,0,0.0,0.0,87,0.00,,,0.00,WUHU216HW,2013-10-16 03:24:00,
2013-10-15 23:29:00,61.6,57.7,30.00,North,0,0.0,0.0,87,0.00,,,0.00,WUHU216HW,2013-10-16 03:29:00,
2013-10-15 23:34:00,61.4,57.5,29.99,North,0,0.0,0.0,87,0.00,,,0.00,WUHU216HW,2013-10-16 03:34:00,
2013-10-15 23:39:00,61.4,57.5,29.99,North,0,0.0,0.0,87,0.00,,,0.00,WUHU216HW,2013-10-16 03:39:00,
2013-10-15 23:44:00,61.4,57.5,29.98,North,0,0.0,0.0,87,0.00,,,0.00,WUHU216HW,2013-10-16 03:44:00,
2013-10-15 23:49:00,61.4,57.5,29.98,North,0,0.0,0.0,87,0.00,,,0.00,WUHU216HW,2013-10-16 03:49:00,
2013-10-15 23:54:00,61.4,57.5,29.98,North,0,0.0,0.0,87,0.00,,,0.00,WUHU216HW,2013-10-16 03:54:00,
2013-10-15 23:59:00,61.2,57.3,29.98,North,0,0.0,0.0,87,0.00,,,0.00,WUHU216HW,2013-10-16 03:59:00,